YAHSAT 1B

Last updated on Sun Jun 21 2026 00:03:05 GMT+0000 (Coordinated Universal Time)

1 38245U 12016A 26171.04497047 .00000121 00000+0 00000+0 0 9996 2 38245 0.0895 89.7270 0002823 17.2229 225.0965 1.00275220 45633
UTC large
Height (km)
Speed (km/s)
/
Latitude / Longitude
Inclination (degrees)
Orbital Period (minutes)
Azimuth
Elevation
Range (km)
Doppler Factor

Next 0 passes for location: London (51.5072 / 0.1276)

No passes found over London.
YAHSAT 1B